Location: Colonia Mina de C?rbuni
(46.1667°N, 22.7167°E)
Time: 22:02:34
(UTC+00:00)

Tiros 1 - Pass Details

Date: 20 April 2024
Orbit: 624 x 657 km, 48.4° (Epoch: 20 May)

Event Time Altitude Azimuth Distance (km) Brightness Sun altitude
Rises 22:50:13 0° 238° (WSW) 2,927 - -31.7°
Reaches altitude 10° 22:52:33 10° 235° (SW) 2,015 - -31.6°
Maximum altitude 22:57:08 64° 155° (SSE) 700 - -31.5°
Exits shadow 23:01:21 12° 75° (ENE) 1,869 9.7 -31.4°
Drops below altitude 10° 23:01:42 10° 74° (ENE) 2,004 9.9 -31.4°
Sets 23:04:01 0° 71° (ENE) 2,910 10.9 -31.3°
